Wind_Speed
15 15 15 14 13 13 12 11 11 10 7 6 4 6 4 2 5 4 3 7 7 8 5 4 4 5 7 5 5 5 6 9 13 9 7 8 9 5 2 3 3 2 7 10 9
15 15 16 16 14 12 11 11 11 9 8 7 5 1 0 2 9 3 3 6 7 6 7 8 6 8 8 6 5 9 8 7 8 5 3 6 8 8 6 7 7 8 9 8 10
16 15 15 16 16 14 12 10 10 9 7 7 3 4 3 4 10 3 3 6 7 3 3 4 3 8 8 5 7 8 9 4 3 2 0 5 6 3 8 9 8 11 11 8 9
19 18 16 16 17 15 14 11 9 8 7 4 4 5 3 6 1 4 4 4 4 3 5 5 7 9 7 8 5 7 5 4 3 3 3 5 2 6 10 2 1 4 9 9 8
15 19 19 17 17 16 14 11 8 5 2 1 6 6 5 8 1 1 4 5 3 3 6 7 9 9 8 7 5 11 3 3 2 4 4 3 8 10 8 7 5 7 6 7 7
15 16 23 20 18 18 14 11 5 1 2 3 6 7 9 10 3 1 3 2 3 4 4 6 5 3 4 4 9 2 4 6 5 7 5 6 9 3 9 10 11 9 8 8 7
12 15 17 22 21 19 15 12 4 4 2 3 6 7 9 3 2 1 3 2 1 2 2 1 2 6 3 4 1 3 7 7 9 7 4 4 12 13 8 9 15 11 9 8 6
12 13 16 18 21 21 16 11 5 6 4 3 4 8 6 2 3 3 2 3 3 3 3 2 3 2 4 3 5 6 6 8 10 8 5 5 6 8 10 10 14 14 12 10 10
14 13 15 17 20 21 17 9 6 7 6 4 6 8 5 5 6 5 4 3 4 4 4 4 3 1 5 8 5 8 6 9 7 9 4 10 7 9 8 11 13 14 13 8 9
13 14 14 15 20 20 16 5 5 5 6 6 8 5 5 5 7 6 5 5 3 4 5 5 5 7 8 8 3 4 8 5 6 8 10 10 14 7 11 12 11 13 15 10 8
12 12 14 14 17 19 10 4 4 6 13 8 1 2 5 7 7 8 8 6 5 6 8 7 7 8 11 7 5 2 3 5 3 5 5 14 16 14 12 18 15 15 14 10 8
14 11 12 14 15 19 5 5 5 4 8 16 10 5 3 11 6 9 8 7 7 9 5 5 10 5 2 4 4 4 5 7 1 2 5 10 15 13 12 9 9 13 13 9 11
17 14 8 11 15 13 7 6 3 3 6 7 12 13 8 11 8 13 10 5 8 9 10 11 7 5 5 6 6 6 6 4 5 5 14 11 11 7 6 6 5 5 9 12 12
18 16 11 6 8 3 5 4 2 1 5 9 8 7 9 7 7 7 9 3 5 6 4 6 8 6 5 7 5 7 3 1 4 6 3 1 4 10 11 10 9 10 11 12 11
22 18 14 8 1 4 1 1 4 2 5 11 8 5 13 11 11 8 5 5 7 6 4 5 6 7 8 1 3 5 1 3 5 8 9 7 5 7 10 12 11 12 13 12 10
24 19 16 10 9 6 4 3 4 3 8 7 7 10 13 11 7 7 6 3 3 4 4 2 1 3 2 3 0 6 3 4 4 4 3 1 3 8 8 14 15 13 13 12 9
24 22 22 11 5 11 9 4 3 6 3 7 8 11 16 10 10 10 12 10 7 6 8 6 9 4 5 5 3 5 4 2 3 3 2 3 4 7 8 4 13 15 14 12 9
24 26 27 23 17 11 10 5 9 9 16 5 7 12 12 11 10 12 9 11 14 8 3 7 6 11 8 5 2 8 2 3 5 2 3 4 6 2 5 6 5 12 12 12 8
18 25 14 26 22 23 7 8 8 11 8 11 12 12 12 13 3 11 13 9 8 17 9 5 6 5 1 2 4 6 5 3 4 2 4 5 4 9 7 8 9 11 12 12 10
11 11 8 28 27 11 7 18 13 4 4 14 13 14 16 15 12 12 12 4 7 11 2 5 4 5 5 3 1 4 4 2 1 2 4 5 5 3 10 11 11 12 13 12 11
11 4 10 32 20 5 8 11 18 7 7 9 11 11 10 11 14 9 4 3 9 10 6 4 2 6 5 9 9 4 4 1 1 2 3 4 0 5 5 7 11 12 12 11 11
4 5 18 35 4 3 10 13 11 6 10 6 5 9 12 13 12 12 12 2 12 14 9 6 1 4 3 3 3 4 3 7 4 5 1 4 7 3 2 1 3 7 9 9 9
5 3 13 2 6 8 12 13 10 8 8 7 6 7 2 9 4 10 9 4 12 14 11 9 4 4 3 2 3 5 10 4 2 0 9 4 2 4 5 3 2 6 7 8 12
3 5 2 2 2 16 16 12 12 10 4 6 3 4 6 6 2 9 10 5 9 9 2 9 4 4 2 3 4 5 8 15 10 5 7 12 14 7 7 6 7 10 12 13 12
4 2 4 6 11 6 13 11 16 8 7 11 6 12 8 4 8 7 10 7 7 7 7 5 4 3 6 3 4 4 6 13 18 18 10 10 13 14 10 15 15 13 10 10 11
3 3 4 1 10 14 8 11 19 19 10 8 11 17 13 7 9 12 11 8 6 12 6 2 3 3 4 4 8 12 15 17 19 20 22 22 25 20 14 4 5 7 7 10 11
7 6 3 7 8 8 9 17 19 14 12 14 16 9 14 13 1 4 13 9 11 11 6 7 6 4 2 2 4 11 20 23 16 13 18 16 17 14 14 8 8 9 9 11 12
Wind_Direction
346 348 348 349 350 350 347 343 341 337 302 303 302 305 319 138 144 223 63 342 323 320 289 260 233 194 201 196 248 261 247 248 236 245 214 144 203 182 53 178 194 93 64 88 123
350 349 348 345 347 346 348 343 341 336 327 301 281 243 75 141 247 150 20 340 327 316 240 223 201 188 198 210 205 224 236 278 21 30 259 176 226 176 213 194 186 157 117 128 147
345 348 350 347 345 341 344 347 339 331 326 311 248 224 183 331 259 106 351 347 329 327 244 233 235 207 219 233 203 208 252 50 72 73 315 181 223 209 233 210 212 191 157 153 150
340 345 348 348 345 339 339 344 344 332 320 327 197 187 196 296 300 84 348 347 341 302 230 204 209 200 217 211 195 246 262 271 124 146 202 209 290 238 235 269 183 164 138 160 169
335 335 339 343 344 340 335 339 343 343 337 2 174 178 276 237 185 21 351 335 293 287 234 216 213 214 222 226 219 236 220 225 191 197 245 273 245 252 243 210 146 134 163 175 167
331 329 333 337 340 339 329 329 324 11 98 138 182 207 262 266 92 20 3 319 343 252 208 215 244 218 252 222 231 11 225 221 209 224 234 247 245 223 226 205 185 179 178 177 170
328 321 325 331 334 336 328 320 274 198 189 199 214 232 272 301 159 87 38 46 343 279 171 150 193 210 179 183 187 195 230 217 221 213 228 246 253 224 238 208 191 196 179 175 184
306 317 317 324 330 333 328 318 247 212 215 246 237 241 276 157 199 194 162 105 92 80 116 137 193 131 251 96 185 216 236 218 148 180 158 209 275 201 194 198 197 196 188 188 211
301 304 312 318 327 331 327 312 246 216 234 254 247 228 255 164 202 181 187 161 128 115 114 136 211 214 176 204 196 204 262 213 154 201 183 213 291 143 188 203 208 201 211 214 214
295 301 303 312 319 329 327 286 251 236 234 241 249 235 169 211 156 182 168 174 195 169 170 207 218 218 224 208 250 212 226 229 226 175 215 226 244 234 200 204 217 229 228 249 225
282 293 296 304 316 326 336 272 214 206 217 226 235 239 145 132 158 196 180 181 192 224 224 201 239 213 206 227 301 280 252 252 171 117 265 246 254 249 227 224 240 242 246 241 215
270 274 289 300 311 314 304 248 359 346 280 223 232 250 211 180 172 182 177 205 199 226 181 200 239 66 121 171 209 220 248 251 247 195 246 273 263 249 247 252 260 241 223 183 164
268 261 269 295 304 300 250 259 295 313 260 192 212 218 188 196 211 178 192 201 224 225 217 259 51 136 184 188 223 230 261 288 296 307 249 285 255 188 180 182 185 218 165 156 161
262 255 251 269 295 278 258 191 191 307 270 176 195 200 176 198 209 141 204 239 212 236 211 256 121 190 210 242 248 270 59 290 291 304 300 346 302 186 164 168 169 165 163 162 158
257 245 236 211 263 261 23 198 148 211 272 130 142 111 157 189 126 180 156 178 231 178 205 79 172 198 223 333 218 58 38 309 298 281 307 162 248 115 167 181 172 168 163 165 167
250 237 220 202 195 243 236 169 187 187 245 168 145 175 171 198 178 131 174 200 7 190 223 85 64 222 356 107 259 123 233 246 271 273 241 138 257 171 180 204 175 172 171 166 175
245 234 212 202 178 196 164 177 192 207 101 174 188 176 194 178 177 186 182 185 182 178 200 177 194 137 182 175 174 223 255 265 231 215 293 147 240 291 135 193 177 177 179 175 173
249 235 214 207 184 163 162 193 232 215 208 115 163 170 185 172 211 196 191 219 218 230 218 195 196 186 167 243 296 196 293 271 273 290 19 164 233 116 128 152 182 178 177 180 190
256 205 189 199 189 167 184 210 221 231 133 159 150 177 193 185 221 195 217 221 212 201 201 208 143 111 135 161 298 146 211 20 299 194 266 236 226 152 148 178 185 185 184 198 213
208 184 186 197 177 174 195 221 224 285 146 166 198 196 188 182 182 195 195 232 184 204 114 175 121 190 132 172 121 297 123 171 136 262 263 213 268 242 189 195 193 198 205 214 226
200 203 174 188 151 163 205 222 226 215 216 194 225 198 203 173 196 184 215 141 169 172 165 163 232 139 161 205 191 172 201 190 26 274 272 295 182 36 73 181 199 211 215 223 238
220 212 160 154 152 174 218 221 214 230 208 242 291 230 206 173 183 199 203 209 162 162 176 157 128 163 132 83 345 302 214 185 218 180 216 330 277 82 93 93 272 225 229 240 253
219 82 175 142 199 195 211 219 230 208 198 190 231 225 185 177 163 187 182 94 163 179 156 179 177 140 169 172 191 224 192 176 87 348 215 236 240 136 124 145 213 266 282 271 274
192 158 233 114 311 220 197 206 204 216 226 192 198 149 163 205 152 171 158 155 172 184 22 152 193 264 326 78 121 193 213 198 197 208 213 227 272 201 202 214 246 257 257 266 288
199 185 168 187 223 253 197 174 199 200 224 191 191 213 174 161 177 188 149 134 169 163 177 150 202 191 266 190 202 203 187 201 212 222 222 262 264 270 305 310 303 298 300 294 290
208 165 152 239 221 199 227 185 204 207 170 204 231 199 200 169 187 188 160 172 177 177 164 159 157 178 259 223 239 258 244 211 224 236 248 264 272 281 301 338 298 297 296 296 299
213 187 183 181 193 186 211 214 216 207 206 244 213 203 209 206 115 282 175 167 157 153 154 158 156 169 236 138 286 269 247 229 220 218 227 241 252 272 258 265 281 290 294 303 306
Height
792 789 785 781 777 774 772 771 769 767 765 764 763 761 760 758 758 758 757 760 759 757 756 755 754 753 752 749 752 749 750 740 734 737 733 744 749 749 750 749 752 753 753 764 769
790 788 785 782 778 774 771 769 768 767 765 764 763 761 760 760 757 756 761 760 759 756 755 752 750 751 749 749 750 750 747 735 737 734 743 748 747 748 753 751 754 758 763 767 768
792 787 784 782 779 775 771 768 766 766 765 764 763 762 761 761 756 753 759 758 758 756 755 753 751 749 748 748 749 745 748 741 746 748 746 750 754 752 752 751 747 754 760 765 767
792 788 783 780 778 776 772 768 765 764 764 762 762 763 763 763 755 757 758 758 757 756 755 752 750 751 750 753 746 755 749 749 751 757 757 756 753 755 753 747 746 751 758 765 766
788 788 785 779 776 775 772 768 765 763 763 763 763 764 765 757 752 759 758 758 758 757 754 751 749 747 751 746 753 754 749 756 756 761 760 759 759 756 752 751 755 760 764 764 765
786 784 785 781 776 773 771 768 765 764 763 763 764 765 763 758 757 758 758 758 757 756 755 753 747 747 746 751 754 751 754 755 758 758 759 762 756 759 748 750 757 762 763 764 766
781 782 780 781 777 772 770 768 765 764 764 764 764 764 760 754 758 758 758 758 758 758 755 756 754 752 750 755 756 756 760 757 756 756 756 760 760 754 747 750 754 760 761 764 768
780 778 778 778 776 772 768 766 764 764 763 763 763 763 753 756 757 758 757 758 758 758 758 758 756 754 752 756 757 757 755 752 745 755 758 764 749 740 743 750 751 756 758 763 766
777 776 775 775 773 769 766 763 763 763 763 763 763 760 748 755 756 756 756 755 758 758 759 759 757 753 758 753 752 750 738 739 753 753 754 760 748 742 747 750 750 750 753 754 760
775 775 772 772 772 767 763 762 763 763 762 763 760 760 753 749 753 755 756 756 756 757 758 758 754 751 749 747 736 729 742 742 738 753 758 753 751 743 747 749 748 747 747 749 758
770 771 770 770 769 766 762 762 762 759 757 743 741 741 746 751 754 754 755 756 755 755 751 752 751 743 732 740 742 743 742 744 739 751 761 750 744 736 735 740 741 744 745 748 756
767 766 766 767 766 767 761 757 755 761 747 742 744 745 747 748 750 751 755 754 752 748 748 753 746 738 744 750 751 750 748 740 741 754 759 743 737 730 730 738 743 741 742 749 756
765 762 759 763 764 764 758 756 758 760 751 735 739 741 746 748 741 744 751 748 747 744 745 740 743 749 751 752 751 747 749 745 751 750 744 748 730 734 742 745 748 744 744 751 758
759 759 758 758 765 761 757 755 757 762 751 731 738 736 742 742 744 741 746 747 748 742 743 740 747 753 753 750 749 744 754 758 758 753 735 746 725 726 736 743 746 748 748 752 757
754 755 755 754 757 761 758 758 758 761 752 725 733 737 735 738 739 747 749 748 742 743 748 747 753 755 751 747 751 755 760 760 760 753 748 740 745 719 729 738 743 745 748 753 758
748 749 750 752 751 757 756 759 760 756 746 728 731 734 736 736 738 745 746 748 747 748 748 747 755 752 748 758 757 760 759 759 759 751 754 738 744 719 728 725 733 742 748 752 758
741 742 743 747 745 751 755 759 760 748 720 724 725 727 726 730 735 737 743 744 736 750 743 750 751 756 757 758 762 761 753 747 748 753 737 750 750 709 718 725 723 737 745 751 756
734 737 735 740 740 748 755 753 753 699 700 712 717 721 722 720 726 732 733 732 731 731 729 736 743 753 755 752 748 754 751 745 745 725 722 753 733 712 721 729 729 734 742 749 754
728 728 729 732 737 742 748 745 712 701 688 710 718 719 719 720 725 728 727 720 717 730 734 735 742 758 759 759 758 756 757 762 754 752 746 710 709 721 732 735 736 737 742 747 751
722 722 722 727 731 740 742 723 706 695 698 701 700 699 705 715 724 727 718 711 723 726 733 731 750 755 765 763 764 760 759 759 765 755 738 704 712 701 726 731 736 738 741 745 748
716 719 717 721 730 737 731 712 704 697 703 701 693 695 691 703 713 721 716 721 720 732 736 738 739 760 764 758 747 766 758 762 765 763 737 721 699 712 713 722 729 734 737 741 744
709 707 714 717 732 733 719 702 695 698 702 703 701 689 689 698 709 713 710 713 720 731 734 739 748 742 744 762 764 754 755 758 747 763 764 758 728 721 725 728 728 730 734 738 742
702 707 714 715 710 713 702 701 698 701 700 702 700 696 695 698 720 705 706 723 724 727 729 738 741 747 753 763 767 764 759 771 776 761 748 739 713 726 730 732 734 734 735 738 740
701 704 715 715 714 696 695 698 702 700 697 696 698 702 703 703 707 708 713 728 729 728 737 734 733 731 717 742 753 770 764 758 759 749 729 727 715 716 724 728 729 731 731 732 733
691 685 684 698 702 701 692 701 698 704 701 697 704 698 699 710 708 710 713 732 733 735 734 743 743 736 737 739 752 750 765 766 762 740 730 708 708 706 712 717 719 722 726 731 734
683 680 691 689 686 703 694 693 684 688 703 696 693 691 692 707 696 701 711 719 722 732 744 755 742 742 737 737 741 744 738 753 757 747 737 729 721 717 717 719 724 726 729 732 732
673 678 679 681 684 694 689 678 681 683 694 687 689 688 691 693 693 692 700 705 708 729 744 749 745 746 725 747 747 735 715 718 723 731 738 740 716 715 716 721 726 728 730 730 730